Regional Weather Roundup
Issued by NWS

Home | Current Version | Previous Version | Text Only | Print | Product List | Glossary On
Versions: 1 2 3 4 5 6 7 8 9 10 11 12 13 14 15 16 17 18 19 20 21 22 23 24 25 26 27 28 29 30 31 32 33 34 35 36 37 38 39 40 41 42 43 44 45 46 47 48 49 50
000
ASUS44 KFWD 241215
RWRTX
NORTH TEXAS HOURLY WEATHER ROUNDUP
NATIONAL WEATHER SERVICE FORT WORTH TX
700 AM CDT SUN JUL 24 2016

NOTE: "FAIR" INDICATES FEW OR NO CLOUDS BELOW 12,000 FEET WITH NO
SIGNIFICANT WEATHER AND/OR OBSTRUCTIONS TO VISIBILITY.

TXZ118-119-241300-
DALLAS/FORT WORTH METROPLEX

CITY           SKY/WX    TMP DP  RH WIND       PRES   REMARKS
DFW AIRPORT    PTCLDY    81  71  71 S6        29.93R
6HR MIN TEMP:  81; 6HR MAX TEMP:  87;

DALLAS LOVE    MOCLDY    83  72  69 S7        29.93S
6HR MIN TEMP:  82; 6HR MAX TEMP:  89;

FTW MEACHAM    PTCLDY    81  70  69 S6        29.93R
6HR MIN TEMP:  81; 6HR MAX TEMP:  88;

DAL-EXECUTIVE  CLEAR     79  70  74 S5        29.94R
6HR MIN TEMP:  79; 6HR MAX TEMP:  85;

FTW-ALLIANCE   PTCLDY    76  70  82 S3        29.93R
6HR MIN TEMP:  76; 6HR MAX TEMP:  84;

FTW-NAS-JRB    PTCLDY    81  70  69 S6        29.94R
6HR MIN TEMP:  81; 6HR MAX TEMP:  88;

FTW-SPINKS     CLEAR     75  70  83 SE3       29.95S
ARLINGTON      PTCLDY    78  71  79 S3        29.94S
6HR MIN TEMP:  78; 6HR MAX TEMP:  84;

GRAND PRAIRIE  CLEAR     81  70  69 S5        29.95S
ADDISON        CLEAR     81  72  74 SE7       29.95R
MESQUITE       CLEAR     75  75 100 SE5       29.94S
LANCASTER      PTCLDY    77  72  83 CALM      29.95S
6HR MIN TEMP:  77; 6HR MAX TEMP:  84;

$$

TXZ091>094-102>105-117-120-121-131>134-241300-
NORTH CENTRAL TEXAS

CITY           SKY/WX    TMP DP  RH WIND       PRES   REMARKS
SHRMAN/DENISON CLEAR     79  73  81 S7        29.95S
6HR MIN TEMP:  79; 6HR MAX TEMP:  82;

GAINESVILLE    PTCLDY    75  73  92 CALM      29.96R
6HR MIN TEMP:  75; 6HR MAX TEMP:  81;

BOWIE          CLEAR     75  71  87 SE3       29.96R
6HR MIN TEMP:  74; 6HR MAX TEMP:  83;

BRIDGEPORT     PTCLDY    77  70  81 S6        29.95S
6HR MIN TEMP:  73; 6HR MAX TEMP:  85;

DECATUR        CLEAR     78  68  69 S7        29.95S
6HR MIN TEMP:  78; 6HR MAX TEMP:  85;

DENTON         PTCLDY    76  73  91 SE6       29.93R
6HR MIN TEMP:  76; 6HR MAX TEMP:  84;

MCKINNEY       CLEAR     77  74  90 SE3       29.94R
6HR MIN TEMP:  77; 6HR MAX TEMP:  82;

GREENVILLE     CLEAR     79  72  78 S3        29.95R
ROCKWALL       CLEAR     78  74  85 S5        29.94R
6HR MIN TEMP:  78; 6HR MAX TEMP:  82;

TERRELL        PTCLDY    78  73  84 S5        29.95R
6HR MIN TEMP:  78; 6HR MAX TEMP:  82;

WAXAHACHIE     PTCLDY    76  72  86 SE5       29.96R
6HR MIN TEMP:  76; 6HR MAX TEMP:  82;

CLEBURNE       PTCLDY    77  75  94 CALM      29.97R
GRANBURY       PTCLDY    80  70  70 CALM      29.96R
6HR MIN TEMP:  80; 6HR MAX TEMP:  87;

$$

TXZ083>090-098>101-113>116-127>130-139>142-154-155-241300-
WESTERN NORTH TEXAS

CITY           SKY/WX    TMP DP  RH WIND       PRES   REMARKS
WICHITA FALLS  PTCLDY    74  68  81 S8        29.93R
6HR MIN TEMP:  72; 6HR MAX TEMP:  85;

WF-KICKAPOO    PTCLDY    78  69  73 SE10      29.94R
6HR MIN TEMP:  77; 6HR MAX TEMP:  85;

VERNON         CLEAR     77  62  59 S6        29.94R
6HR MIN TEMP:  77; 6HR MAX TEMP: 102;

ABILENE        CLEAR     78  66  66 S8        29.97R
6HR MIN TEMP:  78; 6HR MAX TEMP:  84;

ABILENE-DYESS  CLEAR     78  67  67 SE8       29.95R
6HR MIN TEMP:  78; 6HR MAX TEMP:  85;

CISCO          CLEAR     77  68  73 S7        29.98R
BRECKENRIDGE   CLEAR     79  67  64 S7        29.94R
6HR MIN TEMP:  79; 6HR MAX TEMP:  87;

GRAHAM         PTCLDY    76  68  76 E5        29.93R
6HR MIN TEMP:  75; 6HR MAX TEMP:  84;

MINERAL WELLS  PTCLDY    75  69  81 SE5       29.94R
6HR MIN TEMP:  75; 6HR MAX TEMP:  83;

STEPHENVILLE   CLEAR     74  68  80 CALM      29.99R
6HR MIN TEMP:  74; 6HR MAX TEMP:  80;

COMANCHE       PTCLDY    78  69  74 S7        29.96R
6HR MIN TEMP:  77; 6HR MAX TEMP:  81;

BROWNWOOD      CLEAR     75  68  78 CALM      29.97R
COLEMAN        PTCLDY    75  65  71 CALM      29.98R
6HR MIN TEMP:  74; 6HR MAX TEMP:  84;

$$

TXZ143>147-156>162-174-175-241300-
CENTRAL TEXAS

CITY           SKY/WX    TMP DP  RH WIND       PRES   REMARKS
WACO           CLEAR     80  72  76 S9        29.94R
6HR MIN TEMP:  80; 6HR MAX TEMP:  88;

WACO-TSTC      CLEAR     82  73  74 CALM      29.95
WACO-MCGREGOR  CLEAR     78  74  87 S5        29.95R
6HR MIN TEMP:  78; 6HR MAX TEMP:  84;

HILLSBORO      PTCLDY    76  71  83 SE6       29.96R
6HR MIN TEMP:  76; 6HR MAX TEMP:  83;

CORSICANA      CLEAR     79  72  79 S6        29.96R
6HR MIN TEMP:  79; 6HR MAX TEMP:  85;

MEXIA          CLEAR     75  74  95 SE6       29.95R
6HR MIN TEMP:  75; 6HR MAX TEMP:  83;

HEARNE         PTCLDY    77  75  93 CALM      29.97R
6HR MIN TEMP:  77; 6HR MAX TEMP:  83;

CAMERON        CLEAR     78  75  91 S3        29.95R
6HR MIN TEMP:  78; 6HR MAX TEMP:  84;

TEMPLE         CLEAR     77  74  90 S7        29.96R
6HR MIN TEMP:  77; 6HR MAX TEMP:  85;

KILLEEN        CLEAR     76  72  87 S6        29.95R
6HR MIN TEMP:  76; 6HR MAX TEMP:  83;

KILLEEN-SKYLRK CLEAR     78  73  84 S6        29.96R
6HR MIN TEMP:  78; 6HR MAX TEMP:  84;

FORT HOOD      CLEAR     76  72  88 S6        29.94R
6HR MIN TEMP:  76; 6HR MAX TEMP:  83;

GATESVILLE     CLEAR     79  72  78 CALM      29.98R
HAMILTON       CLEAR     76  70  83 S6        29.98R
6HR MIN TEMP:  75; 6HR MAX TEMP:  81;

LAMPASAS       CLEAR     76  73  90 CALM      29.96R
6HR MIN TEMP:  76; 6HR MAX TEMP:  82;

$$

TXZ095>097-106>112-122>126-135>138-148>153-164>167-241300-
EAST TEXAS

CITY           SKY/WX    TMP DP  RH WIND       PRES   REMARKS
PARIS          PTCLDY    73  63  68 SE8       29.96S
6HR MIN TEMP:  73; 6HR MAX TEMP:  75;

SULPHUR SPRNGS CLEAR     79  73  81 S5        29.97R
6HR MIN TEMP:  77; 6HR MAX TEMP:  80;

MOUNT PLEASANT PTCLDY    74  74 100 CALM      29.97R
6HR MIN TEMP:  73; 6HR MAX TEMP:  75;

GILMER         PTCLDY    74  72  91 CALM      29.96R
6HR MIN TEMP:  73; 6HR MAX TEMP:  76;

MINEOLA        CLEAR     79  73  83 S5        29.96S
TYLER          PTCLDY    79  72  79 S7        29.96R
6HR MIN TEMP:  78; 6HR MAX TEMP:  81;

LONGVIEW       CLEAR     76  74  93 S5        29.95R
6HR MIN TEMP:  74; 6HR MAX TEMP:  77;

MARSHALL         N/A     73  70  93 CALM      29.98R
6HR MIN TEMP:  73; 6HR MAX TEMP:  73;

ATHENS         CLEAR     77  75  94 CALM      29.95S
PALESTINE      CLEAR     77  75  92 SE3       29.98R
JACKSONVILLE   MOCLDY    77  74  91 S6        30.00R
HENDERSON      CLEAR     75  74  95 CALM      29.97S
6HR MIN TEMP:  75; 6HR MAX TEMP:  76;

CENTER         CLOUDY    78  77  96 MISG      29.98R
6HR MIN TEMP:  76; 6HR MAX TEMP:  80;

NACOGDOCHES    CLOUDY   N/A N/A N/A S3        29.96R
LUFKIN         PTCLDY    76  74  93 S3        29.97R
6HR MIN TEMP:  75; 6HR MAX TEMP:  81;

$$

SUPPLEMENTAL OBSERVATIONS (CENTRAL)

CITY           SKY/WX    TMP DP  RH WIND       PRES   REMARKS
DENISON DAM      N/A     75  70  83 E2          N/A
PAT MAYSE LAKE   N/A     73  72  94 E2          N/A
GREENVILLE       N/A     79  73  83 S3          N/A
CEDAR HILL       N/A     79  72  78 SE6         N/A
ATHENS           N/A     79  75  89 S3          N/A
LAKE LIMESTONE   N/A     77  73  88 SE1         N/A
MC1F1C2F2C3F3C4F4C5F5C6F6C7F7C8F8C9!



USA.gov is the U.S. government's official web portal to all federal, state and local government web resources and services.